User: anonymous   Login
Location: Unspecified
(0.0000°N, 0.0000°E)
Time: 15:56:43
(UTC+00:00)
Language:

GSAT 12 - Orbit

View from above orbital plane
View from above orbital plane
View from above satellite
View from above satellite

Ground track
Ground track

The orbit data is extracted from the following two-line orbital elements,

1 37746U 11034A   18322.83576358 -.00000156 +00000-0 +00000-0 0  9990
2 37746 000.0189 115.8189 0007422 333.5346 352.3800 01.00271715027208
Epoch (UTC): 18 November 2018 20:03:29
Eccentricity: 0.0007422
inclination: 0.0189°
perigee height: 35755 km
apogee height: 35817 km
right ascension of ascending node: 115.8189°
argument of perigee: 333.5346°
revolutions per day: 1.00271715
mean anomaly at epoch: 352.3800°
orbit number at epoch: 2720

The dashed part of the orbit path shows where the satellite is in the earth's shadow,  

DLR